[[{"header":{"parameterUnit":"m.s-1","parameterCategory":1,"la1":30.2991,"la2":30.254,"lo1":-89.0895,"lo2":-89.0444,"dy":0.0017,"dx":0.0017,"nx":28,"ny":28,"refTime":"2025-03-19T03:00:00:Z","depth":0,"parameterNumber":2,"parameterNumberName":"U-component_of_WINDS"},"data":[0,0,0,0,0,0,0,0,0,0,0,0,0,0,0,0,0,0,0,0,0,0,0,0,0,0,0,0,0,0,0,0,0,0,0,0,0,0,0,0,0,0,0,0,0,0,0,0,0,0,0,0,0,0,0,0,0,0,6.7581,6.7582,0,6.7674,6.7675,6.7676,6.7624,6.7621,6.7619,6.7617,6.7709,6.7714,6.7719,0,0,0,0,0,0,0,0,0,0,0,0,0,6.7358,6.7363,6.7581,6.7582,6.7583,6.7674,6.7675,6.7676,6.7625,6.7621,6.7618,6.7615,6.7708,6.7713,6.7719,0,0,0,0,0,0,0,0,0,0,0,0,0,6.7453,6.7364,6.7581,6.7568,6.7568,6.7673,6.7675,6.7677,6.7625,6.7621,6.7617,6.7614,6.7706,6.7713,6.772,6.7842,0,0,6.7742,6.7745,0,0,0,0,0,0,0,0,6.7448,6.7462,6.7569,6.7569,6.7569,6.7633,6.763,6.7732,6.7626,6.7603,6.7616,6.7612,6.7687,6.7696,6.7721,6.7846,6.785,6.7743,6.7747,6.775,6.7752,0,0,0,0,0,0,0,6.7442,6.7457,6.7617,6.7571,6.7571,6.7558,6.7567,6.7649,6.7665,6.7605,6.7602,6.7613,6.7686,6.7714,6.7723,6.7851,6.7743,6.7749,6.7754,6.7756,6.8084,6.8088,0,0,0,0,0,0,6.7436,6.7452,6.7615,6.762,6.7498,6.7565,6.7576,6.7617,6.7664,6.7668,6.7617,6.7611,6.7704,6.7715,6.7726,6.7874,6.775,6.7757,6.7761,6.8079,6.8085,6.8089,0,0,0,0,0,0,6.7431,6.7451,6.7611,6.7535,6.7555,6.7573,6.762,6.7621,6.7649,6.7673,6.7676,6.7643,6.7701,6.7716,6.7814,6.7876,6.776,6.7767,6.8074,6.8081,6.8087,6.8168,0,0,0,0,0,0,6.7425,6.745,6.7496,6.7537,6.7559,6.7698,6.7624,6.7625,6.7662,6.7655,6.7698,6.7702,6.7699,6.7804,6.7821,6.7884,6.7773,6.8069,6.8077,6.8085,6.816,6.8177,6.8191,0,0,0,0,0,6.7417,6.7514,6.7499,6.7518,6.7617,6.7701,6.7714,6.771,6.7667,6.7714,6.773,6.77,6.7867,6.7814,6.7834,6.7899,6.8065,6.8075,6.8084,6.8153,6.8174,6.8191,0,0,0,0,0,0,6.7478,6.7519,6.7502,6.7615,6.7655,6.7692,6.7751,6.7731,6.7784,6.7775,6.7767,6.7778,6.7881,6.79,6.7841,6.8021,6.7959,6.7973,6.8005,6.8024,6.8039,6.8033,6.7779,0,0,0,0,0,6.7505,6.757,6.7602,6.7698,6.772,6.7733,6.7769,6.7763,6.7804,6.782,6.7843,6.7884,6.7945,6.7986,6.8043,6.8163,6.8173,6.8218,6.8234,6.8246,6.8258,6.8325,6.8346,6.8121,6.8121,6.8121,0,0,6.756,6.7591,6.7632,6.7712,6.7742,6.781,6.7747,6.782,6.7871,6.7831,6.7926,6.7945,6.7989,6.81,6.8149,6.8119,6.8323,6.8259,6.8268,6.8274,6.8337,6.8359,6.8378,6.8128,6.8127,6.8126,0,0,6.7696,6.7725,6.781,6.7843,6.789,6.7899,6.7919,6.796,6.7972,6.8067,6.804,6.8099,6.8205,6.8239,6.827,6.8422,6.8397,6.8441,6.8521,6.8587,6.8604,6.862,6.8676,6.8696,6.8453,6.8454,6.8454,0,6.7759,6.786,6.7856,6.7933,6.7969,6.7938,6.8025,6.8056,6.812,6.8146,6.8111,6.8245,6.8273,6.8392,6.8429,6.8455,6.8479,6.8436,6.8602,6.8618,6.8633,6.8686,6.8706,6.8459,6.8458,6.8458,6.8457,0,6.7935,6.8007,6.8069,6.8134,6.8177,6.8258,6.8267,6.8311,6.8303,6.8315,6.8414,6.8446,6.8511,6.8539,6.853,6.8658,6.8637,6.8603,6.854,6.8659,6.8709,6.8729,6.8466,6.8464,6.8463,6.8461,0,0,6.811,6.8174,6.8197,6.8227,6.8279,6.8333,6.8414,6.8479,6.8518,6.8564,6.8632,6.8724,6.8693,6.8728,6.8723,6.878,6.8901,6.8739,6.874,6.8769,6.9046,6.9071,6.9095,6.8885,6.8889,6.8892,6.9042,0,6.825,6.8392,6.8392,6.8522,6.8589,6.8562,6.8632,6.8672,6.8686,6.8745,6.876,6.8826,6.878,6.8801,6.8857,6.8875,6.8957,6.8864,6.8949,6.8952,6.8939,6.9121,6.9148,6.9287,6.9061,6.9065,6.9067,0,6.8432,6.8486,6.8624,6.8669,6.8696,6.876,6.8821,6.8877,6.8922,6.8928,6.897,6.8957,6.9039,6.8975,6.909,6.9027,6.9061,6.9076,6.9081,6.9089,6.9016,6.9134,6.9332,6.9353,6.9097,6.9095,6.9093,0,6.8547,6.8654,6.8751,6.8777,6.8831,6.8877,6.8902,6.8943,6.8983,6.9036,6.9063,6.9124,6.9158,6.9207,6.9211,6.9164,6.9327,6.9262,6.9335,6.9335,6.937,6.9368,6.9577,6.9393,6.9392,6.9392,6.9391,0,6.8704,6.8789,6.8804,6.8864,6.8959,6.8959,6.9054,6.9074,6.9112,6.9175,6.9155,6.9215,6.9217,6.9279,6.9283,6.9378,6.9393,6.9401,6.9401,6.9403,6.9402,6.9426,6.9416,6.9397,6.9396,6.9395,6.9394,0,6.8848,6.8861,6.8965,6.9009,6.9022,6.9091,6.9129,6.9186,6.9199,6.928,6.9299,6.932,6.9392,6.9401,6.9484,6.9487,6.9602,6.9591,6.9587,6.9586,6.9658,6.9652,6.989,6.9921,6.9716,6.9718,6.9719,0,6.8947,6.9013,6.9065,6.9107,6.9134,6.9201,6.9243,6.9246,6.929,6.9348,6.9398,6.9469,6.9525,6.9641,6.9663,6.9728,6.9719,6.9798,6.9728,6.9729,6.9721,6.9717,6.9725,6.9811,6.9813,6.9815,6.9817,0,6.9122,6.9126,6.9187,6.9252,6.9302,6.9353,6.94,6.9435,6.9444,6.9495,6.9569,6.9613,6.97,6.977,6.9834,6.9859,6.984,6.9839,6.9859,6.9862,6.9857,6.9862,6.9624,6.9833,6.9832,6.983,6.9829,6.9829,6.9248,6.9306,6.9352,6.9421,6.9458,6.9504,6.956,6.9582,6.9644,6.9715,6.9713,6.9795,6.9841,6.9925,6.9955,7.0019,6.9993,7.0022,7.003,7.0037,7.0045,6.9847,7.0031,7.003,7.003,7.003,7.0029,0,6.9423,6.9452,6.9516,6.9584,6.9639,6.9618,6.967,6.9717,6.979,6.9834,6.9891,6.9977,7.0046,7.0075,7.0143,7.0189,7.0182,7.0206,7.0203,7.021,7.0064,7.004,7.0211,7.0211,7.0211,7.0211,7.0211,7.0211,6.952,6.9618,6.9628,6.9744,6.9773,6.9854,6.9885,6.9928,6.9964,7.0061,7.0119,7.0138,7.0177,7.0247,7.031,7.0317,7.0343,7.0372,7.0375,7.0238,7.022,7.0202,7.0179,7.0377,7.0377,7.0515,7.0516,7.0517]},{"header":{"parameterUnit":"m.s-1","parameterCategory":1,"la1":30.2991,"la2":30.254,"lo1":-89.0895,"lo2":-89.0444,"dy":0.0017,"dx":0.0017,"nx":28,"ny":28,"refTime":"2025-03-19T03:00:00:Z","depth":0,"parameterNumber":3,"parameterNumberName":"V-component_of_WINDS"},"data":[0,0,0,0,0,0,0,0,0,0,0,0,0,0,0,0,0,0,0,0,0,0,0,0,0,0,0,0,0,0,0,0,0,0,0,0,0,0,0,0,0,0,0,0,0,0,0,0,0,0,0,0,0,0,0,0,0,0,-6.7332,-6.7333,0,-6.7471,-6.7472,-6.7474,-6.746,-6.7458,-6.7456,-6.7454,-6.7592,-6.7598,-6.7603,0,0,0,0,0,0,0,0,0,0,0,0,0,-6.7052,-6.7057,-6.7332,-6.7333,-6.7335,-6.7471,-6.7473,-6.7474,-6.746,-6.7458,-6.7455,-6.7453,-6.759,-6.7597,-6.7604,0,0,0,0,0,0,0,0,0,0,0,0,0,-6.718,-6.7059,-6.7331,-6.7345,-6.7347,-6.747,-6.7473,-6.7475,-6.7461,-6.7458,-6.7455,-6.7451,-6.7588,-6.7596,-6.7605,-6.7723,0,0,-6.7631,-6.7635,0,0,0,0,0,0,0,0,-6.7173,-6.719,-6.7341,-6.7344,-6.7347,-6.7445,-6.7425,-6.7558,-6.7462,-6.7418,-6.7454,-6.745,-6.7546,-6.7557,-6.7591,-6.7729,-6.7735,-6.7632,-6.7637,-6.7641,-6.7643,0,0,0,0,0,0,0,-6.7164,-6.7184,-6.7386,-6.7343,-6.7347,-6.7343,-6.7358,-6.745,-6.7498,-6.7421,-6.7421,-6.7437,-6.7547,-6.7582,-6.7594,-6.7737,-6.7632,-6.7639,-6.7644,-6.7648,-6.7981,-6.7985,0,0,0,0,0,0,-6.7152,-6.7177,-6.7382,-6.7391,-6.725,-6.7351,-6.7367,-6.7417,-6.7497,-6.7506,-6.744,-6.7436,-6.7569,-6.7584,-6.7598,-6.7743,-6.7641,-6.7649,-6.7654,-6.7977,-6.7982,-6.7986,0,0,0,0,0,0,-6.7146,-6.7171,-6.7376,-6.7284,-6.731,-6.7359,-6.7415,-6.7421,-6.7457,-6.7511,-6.7519,-6.7468,-6.7567,-6.7586,-6.7693,-6.7747,-6.7652,-6.766,-6.7973,-6.7979,-6.7984,-6.8032,0,0,0,0,0,0,-6.7138,-6.7169,-6.7214,-6.7285,-6.7315,-6.7469,-6.7418,-6.7426,-6.7472,-6.7468,-6.754,-6.7548,-6.7566,-6.768,-6.7701,-6.7757,-6.7667,-6.7968,-6.7976,-6.7982,-6.8025,-6.8038,-6.8049,0,0,0,0,0,-6.7128,-6.7221,-6.7217,-6.7241,-6.7373,-6.7472,-6.7489,-6.7509,-6.7477,-6.7523,-6.7558,-6.7546,-6.7738,-6.7691,-6.7715,-6.7774,-6.7965,-6.7973,-6.7982,-6.802,-6.8036,-6.8049,0,0,0,0,0,0,-6.7153,-6.723,-6.7226,-6.7345,-6.7402,-6.747,-6.7528,-6.7525,-6.7592,-6.7585,-6.7606,-6.7622,-6.773,-6.7763,-6.7709,-6.7893,-6.7847,-6.7861,-6.7868,-6.7883,-6.7895,-6.7885,-6.7674,0,0,0,0,0,-6.7173,-6.7248,-6.7311,-6.7409,-6.7438,-6.7479,-6.7522,-6.7533,-6.7593,-6.7617,-6.766,-6.7718,-6.7791,-6.7839,-6.791,-6.803,-6.8046,-6.8083,-6.8095,-6.8104,-6.8116,-6.8183,-6.8201,-6.8013,-6.8013,-6.8013,0,0,-6.7213,-6.7264,-6.731,-6.7415,-6.7461,-6.7538,-6.7499,-6.7581,-6.7639,-6.7629,-6.7733,-6.7766,-6.7832,-6.7947,-6.7999,-6.7977,-6.8171,-6.8115,-6.8122,-6.8129,-6.8194,-6.8212,-6.8227,-6.8019,-6.8018,-6.8017,0,0,-6.7326,-6.7373,-6.746,-6.7508,-6.7579,-6.7605,-6.7627,-6.7696,-6.7718,-6.7823,-6.7818,-6.7886,-6.8012,-6.806,-6.81,-6.8235,-6.8226,-6.8257,-6.8319,-6.8384,-6.8399,-6.8412,-6.8461,-6.8478,-6.8268,-6.8268,-6.8268,0,-6.7367,-6.7484,-6.7505,-6.759,-6.7637,-6.7634,-6.7723,-6.7767,-6.7857,-6.7889,-6.7864,-6.8024,-6.8068,-6.8194,-6.8227,-6.826,-6.8285,-6.8248,-6.8396,-6.8409,-6.8422,-6.8468,-6.8486,-6.8271,-6.8271,-6.8271,-6.827,0,-6.7531,-6.7612,-6.7675,-6.7764,-6.7817,-6.7903,-6.7938,-6.799,-6.7996,-6.8026,-6.8133,-6.8186,-6.8268,-6.8299,-6.8305,-6.8427,-6.8412,-6.8391,-6.8345,-6.8443,-6.8487,-6.8505,-6.8276,-6.8275,-6.8274,-6.8273,0,0,-6.7662,-6.7764,-6.7787,-6.7828,-6.7907,-6.797,-6.8056,-6.8138,-6.8183,-6.8245,-6.8318,-6.8426,-6.8409,-6.8455,-6.8467,-6.8525,-6.8629,-6.8497,-6.8499,-6.852,-6.8768,-6.8783,-6.8803,-6.8625,-6.8628,-6.8631,-6.8762,0,-6.7784,-6.7938,-6.7961,-6.8097,-6.8173,-6.8173,-6.8248,-6.8305,-6.8335,-6.8403,-6.8435,-6.8512,-6.8482,-6.8511,-6.8568,-6.8604,-6.8679,-6.8595,-6.8692,-6.8696,-6.8676,-6.8826,-6.8842,-6.8964,-6.878,-6.8783,-6.8785,0,-6.7946,-6.8015,-6.8159,-6.823,-6.8263,-6.833,-6.8408,-6.8474,-6.8538,-6.8556,-6.861,-6.8615,-6.8705,-6.8655,-6.8779,-6.8722,-6.8763,-6.8787,-6.8793,-6.8802,-6.8746,-6.884,-6.9003,-6.9021,-6.8812,-6.881,-6.8808,0,-6.8028,-6.8157,-6.8261,-6.8296,-6.8381,-6.8428,-6.8466,-6.8527,-6.8576,-6.8644,-6.8676,-6.8753,-6.8795,-6.8854,-6.8881,-6.8842,-6.9004,-6.8956,-6.9021,-6.9021,-6.9054,-6.9052,-6.9226,-6.9081,-6.9081,-6.908,-6.908,0,-6.8162,-6.825,-6.8299,-6.8363,-6.8462,-6.8488,-6.8585,-6.8621,-6.8676,-6.8746,-6.875,-6.8816,-6.8847,-6.8917,-6.8938,-6.9038,-6.9057,-6.9074,-6.9079,-6.9074,-6.9072,-6.9101,-6.9093,-6.9085,-6.9084,-6.9083,-6.9082,0,-6.827,-6.8306,-6.8419,-6.8491,-6.8512,-6.8582,-6.8643,-6.8705,-6.8735,-6.8824,-6.8847,-6.8894,-6.8978,-6.9011,-6.9112,-6.9126,-6.9242,-6.9239,-6.9221,-6.9222,-6.9285,-6.9279,-6.9485,-6.9513,-6.9349,-6.935,-6.9351,0,-6.8353,-6.8421,-6.8501,-6.855,-6.8589,-6.8666,-6.8717,-6.8745,-6.8797,-6.8878,-6.893,-6.9014,-6.9082,-6.9215,-6.9258,-6.9336,-6.9336,-6.9403,-6.9348,-6.9342,-6.9338,-6.9334,-6.9341,-6.9413,-6.9415,-6.9416,-6.9417,0,-6.8496,-6.8512,-6.8585,-6.8665,-6.8726,-6.879,-6.8852,-6.8891,-6.8929,-6.8987,-6.9074,-6.9127,-6.9232,-6.9316,-6.9397,-6.9434,-6.9433,-6.9434,-6.9454,-6.945,-6.9436,-6.9445,-6.9249,-6.9429,-6.9428,-6.9427,-6.9427,-6.9426,-6.8595,-6.8656,-6.8723,-6.8805,-6.8855,-6.8914,-6.8976,-6.9016,-6.9089,-6.9178,-6.919,-6.9283,-6.9347,-6.9456,-6.9497,-6.957,-6.9552,-6.958,-6.9587,-6.9593,-6.9598,-6.9425,-6.9584,-6.9584,-6.9584,-6.9584,-6.9583,0,-6.8739,-6.8783,-6.8858,-6.8946,-6.9011,-6.9006,-6.9075,-6.9129,-6.9211,-6.9272,-6.934,-6.944,-6.9522,-6.9572,-6.9654,-6.9703,-6.9704,-6.9723,-6.972,-6.9729,-6.9609,-6.9585,-6.9721,-6.9721,-6.9721,-6.9721,-6.9721,-6.9721,-6.8822,-6.8926,-6.895,-6.9079,-6.9122,-6.9214,-6.9255,-6.9309,-6.9358,-6.947,-6.9539,-6.9572,-6.9629,-6.9715,-6.979,-6.9802,-6.9832,-6.9853,-6.9865,-6.9751,-6.9737,-6.9724,-6.9701,-6.986,-6.986,-6.9979,-6.998,-6.9981]}]]